Regional Weather Roundup
Issued by NWS

Home | Current Version | Previous Version | Text Only | Print | Product List | Glossary Off
Versions: 1 2 3 4 5 6 7 8 9 10 11 12 13 14 15 16 17 18 19 20 21 22 23 24 25 26 27 28 29 30 31 32 33 34 35 36 37 38 39 40 41 42 43 44 45 46 47 48 49 50

677
ASUS43 KLMK 161410
RWRKY
KENTUCKY REGIONAL WEATHER ROUNDUP
NATIONAL WEATHER SERVICE LOUISVILLE KY
900 AM EST TUE JAN 16 2018

NOTE "FAIR" INDICATES FEW OR NO CLOUDS BELOW 12,000 FEET
WITH NO SIGNIFICANT WEATHER AND/OR OBSTRUCTIONS TO VISIBILITY.

KYZ001>023-026-027-061>063-070>075-161500-
WESTERN AND SOUTH CENTRAL KENTUCKY

CITY           SKY/WX    TMP DP  RH WIND       PRES   REMARKS
PADUCAH        FAIR       5  -4  66 NW5       30.65S WCI  -4
HENDERSON      FAIR       3  -4  72 W10       30.66R WCI -12
OWENSBORO      MOCLDY     5  -3  69 NW9       30.65R WCI  -9
HOPKINSVILLE   CLOUDY    10   6  83 N5        30.61R WCI   1
BOWLING GREEN  LGT SNOW  10   5  80 NW6       30.60S WCI   0
GLASGOW        LGT SNOW  11   8  85 NW5       30.56S WCI   3
$$

KYZ024-025-028>034-038-045-046-053-161500-
NORTH CENTRAL KENTUCKY

CITY           SKY/WX    TMP DP  RH WIND       PRES   REMARKS
LOUISVILLE/SDF CLOUDY     8   0  69 W9        30.58R WCI  -5
LOUISVILLE/LOU CLOUDY     8   0  69 W7        30.59R WCI  -3
FORT KNOX      CLOUDY     6  -2  69 W10       30.54R WCI  -8
$$

KYZ035>037-039>044-047>052-055>060-089>105-161500-
NORTHEAST KENTUCKY

CITY           SKY/WX    TMP DP  RH WIND       PRES   REMARKS
LEXINGTON      LGT SNOW  11   6  81 W9        30.49S VSB 3/4 WCI  -2
COVINGTON      CLOUDY     7   1  76 W10       30.49R WCI  -8
FRANKFORT      LGT SNOW  10   4  76 W6        30.52R WCI   0
$$

KYZ054-064>069-076>088-106>120-161500-
SOUTHEAST KENTUCKY

CITY           SKY/WX    TMP DP  RH WIND       PRES   REMARKS
JACKSON        FLURRIES  19  16  88 CALM      30.42R
LONDON         CLOUDY    17  12  80 NW6       30.46R WCI   9
SOMERSET       LGT SNOW  16  12  86 N5        30.51S VSB 1   WCI   9
MIDDLESBORO    FLURRIES  30  27  86 CALM      30.42R
MONTICELLO     LGT SNOW  16  13  88 NW9       30.52S FOG     WCI   4
$$





USA.gov is the U.S. government's official web portal to all federal, state and local government web resources and services.